Home > Weather > Puerto Williams > Past weeks

Flag for Chile Weather for the Past 2 Weeks in Puerto Williams, Chile

Now
41 °F

Scattered clouds.


Feels Like: 30 °F
Forecast: 29 / 41 °F
Wind: 29 mph from West

Location: Ushuaia Aerodrome

Current Time: Apr 30, 2016 at 3:56:55 PM

Latest Report: Apr 30, 2016 at 3:00 PM


Visibility: N/A

Pressure: N/A

Humidity: 81%

Dew Point: 36 °F

Location of Puerto WilliamsLocation

Historic Weather in Puerto Williams — Graph

°F

Puerto Williams Temperature Yesterday

Maximum temperature yesterday: 45 °F (at 5:00 PM)
Minimum temperature yesterday: 34 °F (at 7:00 AM)
Average temperature yesterday: 39 °F

High & Low Weather Summary for the Past Weeks

 TemperatureHumidityPressure
High48 °F (Apr 27, 7:00 AM)100% (Apr 15, 11:00 PM)30.39 "Hg (Apr 15, 11:00 PM)
Low25 °F (Apr 17, 1:00 AM)46% (Apr 30, 3:00 AM)28.97 "Hg (Apr 15, 3:00 PM)
Average37 °F78%29.73 "Hg
* Reported Apr 15 2:00 PM — Apr 30 2:00 PM, Puerto Williams, Weather by CustomWeather, © 2016

Note: Actual official high and low records may vary slightly from our data, if they occured in-between our weather recording intervals... More about our weather records

Advertising

Puerto Williams Weather History for the Previous 24 Hours

Scroll right to see more
 ConditionsComfort  
Time TempWeatherWind HumidityBarometerVisibility
2:00 PM
Sat, Apr 30
43 °FScattered showers. Broken clouds.29 mph76%29.65 "HgN/A
1:00 PM43 °FScattered showers. Broken clouds.29 mph76%29.68 "HgN/A
12:00 PM43 °FPartly sunny.25 mph71%29.68 "HgN/A
11:00 AM41 °FScattered clouds.26 mph76%29.71 "HgN/A
10:00 AM41 °FScattered clouds.25 mph76%29.71 "HgN/A
9:00 AM41 °FScattered clouds.29 mph76%29.71 "HgN/A
8:00 AM43 °FScattered clouds.36 mph61%29.71 "HgN/A
7:00 AM43 °FPassing clouds.30 mph53%29.71 "HgN/A
6:00 AM43 °FPassing clouds.32 mph49%29.71 "HgN/A
5:00 AM45 °FPassing clouds.26 mph49%29.71 "HgN/A
4:00 AM45 °FPassing clouds.14 mph46%29.74 "HgN/A
3:00 AM45 °FPassing clouds.9 mph46%29.77 "HgN/A
2:00 AM43 °FPassing clouds.5 mph53%29.80 "HgN/A
1:00 AM45 °FClear.5 mph49%29.83 "Hg10 mi
12:00 AM41 °FClear.No wind57%29.89 "Hg10 mi
11:00 PM
Fri, Apr 29
39 °FClear.No wind65%29.89 "Hg10 mi
10:00 PM39 °FClear.7 mph65%29.92 "Hg10 mi
9:00 PM39 °FClear.No wind65%29.95 "Hg10 mi
8:00 PM39 °FClear.No wind75%29.98 "Hg10 mi
7:00 PM39 °FClear.No wind75%30.01 "Hg10 mi
6:00 PM41 °FClear.5 mph76%30.01 "Hg10 mi
5:00 PM45 °FSunny.No wind61%30.04 "Hg10 mi
4:00 PM43 °FSunny.No wind61%30.07 "Hg10 mi
3:00 PM43 °FSunny.6 mph61%30.09 "Hg10 mi
Weather by CustomWeather, © 2016

See weather overviewHow to use our weather pages